This demonstration page uses our WeatherBlox Daily Observations layout. Learn more.

Left ArrowRight Arrow

Hourly Observations for August 7, 2021

Temp ( °F °C ) Dew Point ( °F °C ) Humidity (%) Winds ( mph kmh ) Pressure ( in mb ) Visibility ( mi km ) Precip ( " mm )
12:15 am 00:15 Clear with Thunderstorms 76 24.6 62 16.9 62 62 W 13 20 29.80 1009 10 16 N/A
12:35 am 00:35 Clear 75 24 64 17.5 67 67 N 5 7 29.81 1010 10 16 N/A
12:55 am 00:55 Mostly Cloudy with Thunderstorms 74 23.4 64 18 72 72 WSW 3 6 29.82 1010 10 16 N/A
1:15 am 01:15 Cloudy with Strong Thunderstorms 74 23.3 66 18.8 76 76 S 6 9 29.81 1009 2 3 0.15 3.81
1:35 am 01:35 Cloudy with Thunderstorms 72 22.3 66 19.1 82 82 SE 8 13 29.79 1009 10 16 0.16 4.06
1:55 am 01:55 Partly Cloudy with Thunderstorms 73 23 67 19.2 79 79 SSE 7 11 29.75 1008 10 16 0.16 4.06
2:15 am 02:15 Clear with Nearby Thunderstorms 74 23.4 66 18.8 75 75 SSE 10 17 29.73 1007 10 16 N/A
2:35 am 02:35 Clear with Light Rain 74 23.4 65 18.2 73 73 SE 12 19 29.72 1006 10 16 N/A
2:55 am 02:55 Clear 73 23 65 18.3 75 75 SSE 3 6 29.74 1007 10 16 N/A
3:15 am 03:15 Partly Cloudy 71 21.6 66 19 85 85 ENE 9 15 29.76 1008 10 16 N/A
3:35 am 03:35 Partly Cloudy with Thunderstorms 71 21.5 66 19 86 86 E 8 13 29.76 1008 10 16 N/A
3:55 am 03:55 Clear 70 21.2 66 19.1 88 88 ESE 5 7 29.75 1007 10 16 N/A
4:15 am 04:15 Clear with Thunderstorms 71 21.5 66 19.1 86 86 ESE 8 13 29.73 1007 10 16 N/A
4:35 am 04:35 Clear 71 21.8 66 19 84 84 N N/A 29.72 1007 10 16 N/A
4:55 am 04:55 Clear 72 22.3 65 18.6 80 80 SE 7 11 29.70 1006 10 16 N/A
5:15 am 05:15 Clear 72 22 66 18.7 82 82 SE 5 7 29.70 1006 10 16 N/A
5:35 am 05:35 Clear 71 21.4 65 18.6 84 84 ESE 5 7 29.70 1006 10 16 N/A
5:55 am 05:55 Clear 70 21.3 65 18.6 85 85 SE 3 6 29.71 1006 10 16 N/A
6:15 am 06:15 Clear 71 21.7 65 18.3 81 81 ESE 3 6 29.70 1006 10 16 N/A
6:35 am 06:35 Clear with Nearby Thunderstorms 69 20.7 65 18.5 87 87 N N/A 29.70 1006 10 16 N/A
6:55 am 06:55 Sunny 68 20 65 18.5 91 91 N N/A 29.69 1005 10 16 N/A
7:15 am 07:15 Sunny 69 20.6 66 19 91 91 N N/A 29.68 1005 10 16 N/A
7:35 am 07:35 Sunny 71 21.6 64 17.8 79 79 WSW 6 9 29.70 1006 10 16 N/A
7:55 am 07:55 Partly Cloudy with Light Rain 73 23 65 18.2 74 74 SW 8 13 29.72 1007 10 16 N/A
8:15 am 08:15 Partly Cloudy 73 23 65 18.3 75 75 S 14 22 29.72 1007 10 16 N/A
8:35 am 08:35 Sunny with Nearby Thunderstorms 72 22.2 66 19 82 82 SSW 8 13 29.72 1006 10 16 N/A
8:55 am 08:55 Sunny with Nearby Thunderstorms 72 22.1 66 19 83 83 W 8 13 29.74 1007 10 16 N/A
9:15 am 09:15 Partly Cloudy with Light Rain 72 22.2 67 19.2 83 83 WSW 5 7 29.75 1007 10 16 N/A
9:35 am 09:35 Mostly Cloudy with Nearby Thunderstorms 72 22.2 66 18.9 82 82 W 3 6 29.74 1007 10 16 N/A
9:55 am 09:55 Mostly Cloudy with Thunderstorms 72 22.2 66 19.1 83 83 SSW 8 13 29.76 1008 10 16 N/A
10:15 am 10:15 Mostly Cloudy with Thunderstorms 71 21.9 65 18.5 81 81 W 6 9 29.75 1008 7 11 0.03 0.76
10:35 am 10:35 Mostly Cloudy with Thunderstorms 73 22.5 65 18.3 77 77 S 5 7 29.75 1007 5 8 0.09 2.29
10:55 am 10:55 Mostly Cloudy with Thunderstorms 72 22.2 66 18.9 82 82 W 3 6 29.76 1008 10 16 0.12 3.05
11:15 am 11:15 Mostly Cloudy 71 21.5 68 19.9 91 91 NNW 6 9 29.77 1008 3 5 0.06 1.52
11:35 am 11:35 Partly Cloudy 72 22.3 69 20.5 90 90 NNW 6 9 29.76 1008 10 16 0.06 1.52
11:55 am 11:55 Sunny 73 22.5 69 20.5 89 89 NE 3 6 29.76 1008 10 16 0.06 1.52
12:15 pm 12:15 Sunny 76 24.2 69 20.6 80 80 ENE 6 9 29.73 1007 10 16 N/A
12:35 pm 12:35 Partly Cloudy with Thunderstorms 75 24.1 67 19.6 76 76 ESE 5 7 29.73 1007 10 16 N/A
12:55 pm 12:55 Sunny with Thunderstorms 76 24.7 68 20.1 76 76 SE 14 22 29.72 1006 10 16 N/A
1:15 pm 13:15 Sunny 77 25 69 20.6 77 77 SE 13 20 29.71 1006 10 16 N/A
1:35 pm 13:35 Partly Cloudy 78 25.5 70 21.3 78 78 SE 10 17 29.70 1006 10 16 N/A
1:55 pm 13:55 Partly Cloudy with Nearby Thunderstorms 80 26.5 70 21.1 72 72 ESE 12 19 29.70 1006 10 16 N/A
2:15 pm 14:15 Sunny 81 27.1 70 21 69 69 SE 10 17 29.68 1005 10 16 N/A
2:35 pm 14:35 Partly Cloudy 81 27.3 70 21 69 69 SE 8 13 29.68 1005 10 16 N/A
2:55 pm 14:55 Mostly Cloudy 82 27.6 70 20.9 67 67 S 8 13 29.69 1005 10 16 N/A
3:15 pm 15:15 Mostly Cloudy 82 27.5 69 20.8 67 67 SSE 5 7 29.69 1005 10 16 N/A
3:35 pm 15:35 Mostly Cloudy 83 28.2 70 21.1 65 65 SSE 9 15 29.68 1005 10 16 N/A
3:55 pm 15:55 Partly Cloudy 84 28.8 69 20.6 61 61 S 7 11 29.67 1005 10 16 N/A
4:15 pm 16:15 Sunny 84 28.8 71 21.4 64 64 SE 6 9 29.66 1004 10 16 N/A
4:35 pm 16:35 Sunny 84 29 70 21 62 62 N N/A 29.64 1004 10 16 N/A
4:55 pm 16:55 Sunny 84 29 70 21.2 63 63 ENE 5 7 29.64 1004 10 16 N/A
5:15 pm 17:15 Sunny 84 28.9 72 22 66 66 NE 6 9 29.64 1004 10 16 N/A
5:35 pm 17:35 Sunny 84 28.7 72 22.1 68 68 NNE 6 9 29.64 1004 10 16 N/A
5:55 pm 17:55 Sunny 83 28.5 73 22.7 71 71 N 6 9 29.64 1004 10 16 N/A
6:15 pm 18:15 Sunny 84 28.7 72 22.3 68 68 NE 7 11 29.63 1003 7 11 N/A
6:35 pm 18:35 Sunny 82 28 73 22.5 72 72 NNE 7 11 29.63 1004 10 16 N/A
6:55 pm 18:55 Sunny 82 27.9 73 22.8 74 74 NE 7 11 29.61 1003 10 16 N/A
7:15 pm 19:15 Sunny 81 27.4 73 23 77 77 NE 6 9 29.62 1003 10 16 N/A
7:35 pm 19:35 Sunny 80 26.9 73 22.7 78 78 NE 3 6 29.61 1003 10 16 N/A
7:55 pm 19:55 Sunny 79 26 73 22.7 82 82 N 3 6 29.61 1003 10 16 N/A
8:15 pm 20:15 Sunny 77 25.1 73 22.6 86 86 NNE 3 6 29.62 1003 10 16 N/A
8:35 pm 20:35 Sunny 76 24.6 73 22.6 89 89 N 3 6 29.62 1003 10 16 N/A
8:55 pm 20:55 Clear 77 25 73 22.8 88 88 N N/A 29.63 1003 10 16 N/A
9:15 pm 21:15 Partly Cloudy with Nearby Thunderstorms 76 24.3 73 22.9 92 92 W 3 6 29.64 1004 10 16 N/A
9:35 pm 21:35 Mostly Cloudy 76 24.5 73 23 91 91 N N/A 29.64 1004 7 11 N/A
9:55 pm 21:55 Partly Cloudy with Nearby Thunderstorms 76 24.6 73 22.7 89 89 N N/A 29.64 1004 10 16 N/A
10:15 pm 22:15 Clear 75 24.1 72 22.3 90 90 N N/A 29.63 1004 10 16 N/A
10:35 pm 22:35 Clear 74 23.3 71 21.9 92 92 N N/A 29.64 1004 7 11 N/A
10:55 pm 22:55 Clear 74 23.1 72 22.2 95 95 N N/A 29.66 1004 7 11 N/A
11:15 pm 23:15 Clear 73 22.6 71 21.5 94 94 N N/A 29.67 1005 7 11 N/A
11:35 pm 23:35 Clear with Mist and Fog 72 22.3 71 21.5 95 95 N N/A 29.68 1005 5 8 N/A
11:55 pm 23:55 Partly Cloudy 73 22.5 71 21.6 95 95 N N/A 29.68 1005 7 11 N/A

Powered by AerisWeather